[[{"header":{"parameterUnit":"m.s-1","parameterCategory":1,"la1":30.2991,"la2":30.254,"lo1":-89.0895,"lo2":-89.0444,"dy":0.0017,"dx":0.0017,"nx":28,"ny":28,"refTime":"2023-11-03T09:00:00:Z","depth":0,"parameterNumber":2,"parameterNumberName":"U-component_of_WINDS"},"data":[0,0,0,0,0,0,0,0,0,0,0,0,0,0,0,0,0,0,0,0,0,0,0,0,0,0,0,0,0,0,0,0,0,0,0,0,0,0,0,0,0,0,0,0,0,0,0,0,0,0,0,0,0,0,0,0,0,0,-2.3445,-2.3446,0,-2.354,-2.3541,-2.3542,-2.3433,-2.3429,-2.3425,-2.3421,-2.3522,-2.3529,-2.3535,0,0,0,0,0,0,0,0,0,0,0,0,0,-2.3174,-2.318,-2.3445,-2.3446,-2.3448,-2.354,-2.3541,-2.3542,-2.3434,-2.3429,-2.3424,-2.3419,-2.352,-2.3528,-2.3536,0,0,0,0,0,0,0,0,0,0,0,0,0,-2.3283,-2.3181,-2.3445,-2.3404,-2.3402,-2.3539,-2.3541,-2.3543,-2.3435,-2.3428,-2.3422,-2.3417,-2.3518,-2.3527,-2.3537,-2.3721,0,0,-2.3567,-2.3571,0,0,0,0,0,0,0,0,-2.3277,-2.3293,-2.3409,-2.3407,-2.3405,-2.3468,-2.3482,-2.3603,-2.3436,-2.3422,-2.3421,-2.3414,-2.351,-2.352,-2.3551,-2.3725,-2.373,-2.3568,-2.3573,-2.3578,-2.358,0,0,0,0,0,0,0,-2.3269,-2.3288,-2.3483,-2.3411,-2.3408,-2.3383,-2.3391,-2.3505,-2.35,-2.3423,-2.3415,-2.3428,-2.3507,-2.3542,-2.3553,-2.3731,-2.3567,-2.3576,-2.3582,-2.3586,-2.4062,-2.4069,0,0,0,0,0,0,-2.3266,-2.3283,-2.348,-2.3486,-2.3324,-2.3392,-2.3402,-2.3454,-2.3498,-2.3499,-2.3433,-2.3422,-2.3528,-2.3541,-2.3556,-2.3775,-2.3578,-2.3587,-2.3592,-2.4056,-2.4064,-2.4071,0,0,0,0,0,0,-2.3261,-2.3285,-2.3476,-2.3382,-2.3404,-2.3404,-2.3463,-2.3459,-2.3494,-2.3505,-2.3504,-2.3469,-2.3524,-2.3542,-2.368,-2.3777,-2.3591,-2.36,-2.4048,-2.4058,-2.4068,-2.4215,0,0,0,0,0,0,-2.3253,-2.3283,-2.3352,-2.3384,-2.341,-2.3598,-2.3469,-2.3465,-2.351,-2.3497,-2.3539,-2.354,-2.352,-2.3666,-2.369,-2.3787,-2.3608,-2.4039,-2.4052,-2.4064,-2.4202,-2.4229,-2.4253,0,0,0,0,0,-2.3244,-2.3391,-2.3356,-2.3381,-2.3496,-2.3604,-2.3619,-2.3592,-2.3519,-2.3589,-2.3596,-2.3539,-2.3762,-2.3681,-2.3707,-2.3809,-2.4033,-2.4049,-2.4063,-2.4191,-2.4224,-2.4252,0,0,0,0,0,0,-2.3372,-2.3394,-2.3356,-2.3518,-2.356,-2.3585,-2.3673,-2.3628,-2.3693,-2.3678,-2.3643,-2.3653,-2.3801,-2.3818,-2.3728,-2.399,-2.3886,-2.3907,-2.3974,-2.4005,-2.403,-2.4025,-2.3616,0,0,0,0,0,-2.3418,-2.3503,-2.3518,-2.366,-2.3682,-2.3675,-2.372,-2.3696,-2.3738,-2.3756,-2.3774,-2.3819,-2.3899,-2.3952,-2.4027,-2.4203,-2.4212,-2.4286,-2.4311,-2.4332,-2.4352,-2.4448,-2.4481,-2.4121,-2.4121,-2.4121,0,0,-2.3517,-2.3539,-2.3595,-2.3686,-2.3715,-2.3806,-2.369,-2.379,-2.3857,-2.3772,-2.3904,-2.3918,-2.3966,-2.4124,-2.4195,-2.4143,-2.4452,-2.4351,-2.4368,-2.4376,-2.4467,-2.4501,-2.4531,-2.4132,-2.413,-2.4128,0,0,-2.3742,-2.3766,-2.3887,-2.3919,-2.3965,-2.3958,-2.3987,-2.402,-2.4026,-2.4157,-2.4095,-2.4175,-2.4313,-2.435,-2.4387,-2.4626,-2.4576,-2.4651,-2.4785,-2.4879,-2.4908,-2.4933,-2.502,-2.5052,-2.467,-2.467,-2.467,0,-2.3859,-2.399,-2.3955,-2.406,-2.4103,-2.4027,-2.4151,-2.4183,-2.4252,-2.4284,-2.4224,-2.4397,-2.4423,-2.459,-2.4649,-2.468,-2.4714,-2.4647,-2.4906,-2.4931,-2.4954,-2.5037,-2.507,-2.4679,-2.4678,-2.4677,-2.4676,0,-2.4133,-2.4225,-2.4317,-2.4384,-2.4437,-2.455,-2.4534,-2.4591,-2.4562,-2.4562,-2.4698,-2.4727,-2.4806,-2.4843,-2.4816,-2.5007,-2.4974,-2.4911,-2.4806,-2.4998,-2.5075,-2.5107,-2.4692,-2.4689,-2.4686,-2.4684,0,0,-2.4443,-2.4488,-2.4523,-2.4553,-2.4597,-2.4669,-2.4779,-2.4856,-2.4907,-2.4956,-2.5049,-2.5168,-2.511,-2.5152,-2.5128,-2.521,-2.54,-2.5137,-2.5137,-2.5187,-2.5615,-2.5664,-2.5701,-2.5366,-2.5371,-2.5376,-2.5611,0,-2.4671,-2.4861,-2.4833,-2.5017,-2.5103,-2.5032,-2.5128,-2.5167,-2.517,-2.5244,-2.5248,-2.5333,-2.5249,-2.5274,-2.5352,-2.536,-2.5486,-2.5342,-2.5455,-2.5459,-2.5448,-2.5741,-2.5793,-2.6014,-2.5641,-2.5646,-2.565,0,-2.4962,-2.5021,-2.5214,-2.5245,-2.528,-2.5367,-2.5435,-2.5506,-2.5549,-2.5546,-2.5593,-2.5553,-2.5665,-2.5556,-2.5711,-2.5615,-2.5658,-2.5669,-2.5677,-2.5689,-2.5568,-2.5763,-2.6083,-2.6118,-2.5697,-2.5693,-2.569,0,-2.5173,-2.53,-2.5432,-2.5459,-2.5499,-2.5562,-2.5581,-2.5617,-2.5666,-2.5725,-2.5756,-2.5829,-2.5869,-2.5927,-2.5909,-2.5831,-2.6069,-2.5958,-2.6071,-2.6072,-2.6127,-2.6124,-2.6461,-2.6151,-2.615,-2.615,-2.6149,0,-2.5431,-2.5553,-2.5527,-2.5609,-2.5743,-2.5709,-2.5843,-2.5854,-2.5887,-2.597,-2.5913,-2.5993,-2.5963,-2.6042,-2.6029,-2.616,-2.6178,-2.618,-2.6176,-2.6187,-2.6187,-2.6218,-2.6203,-2.6159,-2.6157,-2.6155,-2.6153,0,-2.569,-2.5678,-2.5817,-2.5843,-2.5852,-2.595,-2.5972,-2.605,-2.6047,-2.6154,-2.6177,-2.6174,-2.6264,-2.6251,-2.6351,-2.6341,-2.6506,-2.6482,-2.6492,-2.6488,-2.6603,-2.6593,-2.6973,-2.7022,-2.6678,-2.6681,-2.6684,0,-2.5858,-2.5949,-2.5984,-2.6035,-2.6059,-2.6142,-2.6191,-2.6161,-2.6214,-2.6269,-2.634,-2.6424,-2.649,-2.6637,-2.6645,-2.6721,-2.67,-2.6828,-2.6711,-2.672,-2.6705,-2.6701,-2.6711,-2.6852,-2.6856,-2.6859,-2.6862,0,-2.6157,-2.6146,-2.6217,-2.6287,-2.6346,-2.6399,-2.6447,-2.6493,-2.6467,-2.653,-2.662,-2.6671,-2.6772,-2.6858,-2.6929,-2.695,-2.6904,-2.6898,-2.6928,-2.6942,-2.6946,-2.6948,-2.6558,-2.689,-2.6887,-2.6885,-2.6883,-2.6882,-2.6377,-2.6456,-2.6493,-2.6574,-2.6606,-2.6653,-2.6727,-2.6733,-2.6807,-2.6887,-2.6864,-2.6968,-2.7008,-2.7099,-2.7128,-2.7209,-2.7163,-2.7207,-2.7218,-2.723,-2.7245,-2.693,-2.7222,-2.7221,-2.722,-2.722,-2.7219,0,-2.6676,-2.6695,-2.677,-2.6839,-2.6904,-2.685,-2.6901,-2.6959,-2.705,-2.7091,-2.7156,-2.7261,-2.7343,-2.7357,-2.7435,-2.7497,-2.7478,-2.7519,-2.7516,-2.7522,-2.7281,-2.7248,-2.7534,-2.7534,-2.7534,-2.7534,-2.7534,-2.7533,-2.6839,-2.6969,-2.6963,-2.7109,-2.7128,-2.7228,-2.7261,-2.7304,-2.7337,-2.7456,-2.7523,-2.753,-2.7561,-2.7641,-2.7715,-2.7717,-2.775,-2.78,-2.7795,-2.757,-2.7539,-2.7509,-2.7478,-2.7807,-2.7807,-2.8029,-2.8031,-2.8032]},{"header":{"parameterUnit":"m.s-1","parameterCategory":1,"la1":30.2991,"la2":30.254,"lo1":-89.0895,"lo2":-89.0444,"dy":0.0017,"dx":0.0017,"nx":28,"ny":28,"refTime":"2023-11-03T09:00:00:Z","depth":0,"parameterNumber":3,"parameterNumberName":"V-component_of_WINDS"},"data":[0,0,0,0,0,0,0,0,0,0,0,0,0,0,0,0,0,0,0,0,0,0,0,0,0,0,0,0,0,0,0,0,0,0,0,0,0,0,0,0,0,0,0,0,0,0,0,0,0,0,0,0,0,0,0,0,0,0,-2.5425,-2.5425,0,-2.54,-2.5399,-2.5399,-2.5371,-2.537,-2.537,-2.537,-2.5342,-2.5342,-2.5342,0,0,0,0,0,0,0,0,0,0,0,0,0,-2.5448,-2.5448,-2.5425,-2.5425,-2.5425,-2.54,-2.5399,-2.5399,-2.5371,-2.537,-2.537,-2.5369,-2.5343,-2.5342,-2.5342,0,0,0,0,0,0,0,0,0,0,0,0,0,-2.5432,-2.5447,-2.5425,-2.5408,-2.5406,-2.54,-2.5399,-2.5399,-2.5371,-2.537,-2.537,-2.5369,-2.5343,-2.5342,-2.5342,-2.5351,0,0,-2.534,-2.534,0,0,0,0,0,0,0,0,-2.5433,-2.5431,-2.5411,-2.5409,-2.5407,-2.5388,-2.5397,-2.5383,-2.5371,-2.5384,-2.537,-2.5369,-2.5358,-2.5356,-2.5353,-2.535,-2.5348,-2.534,-2.534,-2.534,-2.5339,0,0,0,0,0,0,0,-2.5434,-2.5432,-2.5415,-2.541,-2.5408,-2.54,-2.5397,-2.5394,-2.5375,-2.5383,-2.5381,-2.5378,-2.5357,-2.5353,-2.5352,-2.5348,-2.534,-2.534,-2.5339,-2.5339,-2.5348,-2.5349,0,0,0,0,0,0,-2.5438,-2.5433,-2.5416,-2.5414,-2.5418,-2.54,-2.5397,-2.5395,-2.5375,-2.5371,-2.5379,-2.5377,-2.5354,-2.5352,-2.5351,-2.5358,-2.534,-2.5339,-2.5339,-2.5348,-2.5349,-2.5349,0,0,0,0,0,0,-2.5438,-2.5437,-2.5417,-2.5423,-2.542,-2.5401,-2.5398,-2.5394,-2.5391,-2.5372,-2.5368,-2.5379,-2.5354,-2.5352,-2.5351,-2.5357,-2.5339,-2.5338,-2.5347,-2.5348,-2.5349,-2.5375,0,0,0,0,0,0,-2.5439,-2.5437,-2.5441,-2.5423,-2.542,-2.5418,-2.5399,-2.5394,-2.539,-2.5387,-2.5371,-2.5367,-2.5353,-2.5351,-2.535,-2.5356,-2.5338,-2.5347,-2.5348,-2.5349,-2.5373,-2.5377,-2.5379,0,0,0,0,0,-2.544,-2.545,-2.5441,-2.5439,-2.5424,-2.5418,-2.5416,-2.54,-2.5391,-2.5394,-2.5381,-2.5368,-2.5357,-2.5352,-2.535,-2.5356,-2.5346,-2.5347,-2.5349,-2.5372,-2.5376,-2.5379,0,0,0,0,0,0,-2.5468,-2.5447,-2.5438,-2.5442,-2.5432,-2.5414,-2.5417,-2.5405,-2.5398,-2.5396,-2.5376,-2.5372,-2.5373,-2.5364,-2.5359,-2.5362,-2.5349,-2.535,-2.5368,-2.5371,-2.5374,-2.5376,-2.5338,0,0,0,0,0,-2.5475,-2.5473,-2.5454,-2.5459,-2.5455,-2.5437,-2.5434,-2.5422,-2.5411,-2.5407,-2.5394,-2.5384,-2.5378,-2.5374,-2.5368,-2.5372,-2.5367,-2.5375,-2.5378,-2.5381,-2.5381,-2.5381,-2.5384,-2.5353,-2.5353,-2.5353,0,0,-2.5489,-2.5477,-2.5477,-2.5465,-2.5456,-2.5453,-2.5434,-2.5432,-2.5429,-2.5407,-2.5404,-2.5395,-2.5382,-2.5383,-2.5383,-2.5376,-2.5389,-2.5382,-2.5384,-2.5384,-2.5382,-2.5385,-2.5388,-2.5354,-2.5354,-2.5354,0,0,-2.5512,-2.5504,-2.5506,-2.5498,-2.5484,-2.5472,-2.5473,-2.5456,-2.5448,-2.5446,-2.5429,-2.5425,-2.5415,-2.5406,-2.54,-2.5418,-2.5405,-2.5416,-2.5431,-2.5431,-2.5434,-2.5436,-2.544,-2.5443,-2.5417,-2.5418,-2.5418,0,-2.5531,-2.5526,-2.5509,-2.5508,-2.5502,-2.5482,-2.5483,-2.5476,-2.5461,-2.5457,-2.545,-2.5436,-2.5426,-2.5423,-2.5428,-2.5424,-2.5423,-2.5418,-2.5435,-2.5437,-2.5438,-2.5442,-2.5444,-2.5419,-2.5419,-2.5419,-2.5418,0,-2.5549,-2.5546,-2.5549,-2.5535,-2.553,-2.553,-2.5512,-2.5509,-2.5498,-2.5486,-2.5483,-2.547,-2.5459,-2.5458,-2.5447,-2.5453,-2.5449,-2.5439,-2.5425,-2.5443,-2.5446,-2.5448,-2.5421,-2.542,-2.542,-2.542,0,0,-2.5589,-2.5565,-2.5566,-2.5559,-2.5542,-2.5539,-2.5538,-2.5527,-2.5524,-2.5515,-2.5512,-2.5503,-2.5493,-2.5486,-2.5474,-2.5474,-2.5486,-2.5463,-2.5462,-2.5466,-2.5491,-2.5498,-2.55,-2.5478,-2.5478,-2.5478,-2.5491,0,-2.5608,-2.5605,-2.5589,-2.559,-2.5586,-2.5566,-2.5564,-2.5553,-2.5542,-2.5536,-2.5523,-2.5517,-2.5504,-2.55,-2.5499,-2.5485,-2.5491,-2.5484,-2.5474,-2.5474,-2.5477,-2.5502,-2.5511,-2.5523,-2.5493,-2.5493,-2.5493,0,-2.563,-2.5621,-2.5622,-2.5604,-2.5601,-2.56,-2.5589,-2.5584,-2.557,-2.5562,-2.5554,-2.554,-2.5535,-2.5523,-2.5517,-2.5512,-2.5507,-2.5499,-2.5499,-2.5497,-2.5484,-2.5499,-2.5527,-2.5529,-2.5496,-2.5495,-2.5495,0,-2.5658,-2.5646,-2.5644,-2.5639,-2.5618,-2.5617,-2.5608,-2.5594,-2.5589,-2.5578,-2.5574,-2.5564,-2.5558,-2.5549,-2.5532,-2.5525,-2.5526,-2.5513,-2.5518,-2.5518,-2.5519,-2.5519,-2.5545,-2.5517,-2.5517,-2.5517,-2.5517,0,-2.568,-2.5681,-2.5656,-2.5655,-2.5654,-2.5636,-2.5635,-2.5625,-2.5612,-2.5607,-2.559,-2.5585,-2.5564,-2.5557,-2.5543,-2.5538,-2.5536,-2.5528,-2.5524,-2.5529,-2.553,-2.5525,-2.5523,-2.5518,-2.5518,-2.5518,-2.5518,0,-2.571,-2.5694,-2.569,-2.5671,-2.5666,-2.5666,-2.5649,-2.5646,-2.5633,-2.5628,-2.5625,-2.5605,-2.5596,-2.5578,-2.5564,-2.5555,-2.5552,-2.5547,-2.5557,-2.5554,-2.556,-2.5559,-2.5582,-2.5584,-2.5557,-2.5557,-2.5557,0,-2.5725,-2.5725,-2.5705,-2.57,-2.5692,-2.5686,-2.568,-2.5661,-2.5655,-2.5639,-2.5638,-2.5627,-2.5618,-2.5603,-2.5587,-2.5575,-2.5568,-2.5577,-2.5567,-2.5571,-2.5567,-2.5566,-2.5565,-2.558,-2.558,-2.558,-2.5581,0,-2.5752,-2.5743,-2.5736,-2.5725,-2.5718,-2.5708,-2.5698,-2.5695,-2.5673,-2.5668,-2.5658,-2.565,-2.5635,-2.5624,-2.561,-2.56,-2.5586,-2.5584,-2.5584,-2.5589,-2.5594,-2.559,-2.5562,-2.5584,-2.5583,-2.5583,-2.5583,-2.5583,-2.5773,-2.5772,-2.5757,-2.5749,-2.5739,-2.5729,-2.5725,-2.5711,-2.5703,-2.569,-2.5679,-2.567,-2.5654,-2.5634,-2.5625,-2.5616,-2.561,-2.5611,-2.561,-2.5611,-2.5612,-2.5596,-2.5614,-2.5614,-2.5614,-2.5613,-2.5613,0,-2.5798,-2.5788,-2.578,-2.5765,-2.5758,-2.5747,-2.5734,-2.5728,-2.572,-2.5708,-2.5698,-2.5686,-2.5675,-2.5658,-2.5645,-2.5641,-2.5635,-2.5639,-2.5638,-2.5635,-2.5619,-2.562,-2.5644,-2.5644,-2.5644,-2.5644,-2.5644,-2.5644,-2.581,-2.5806,-2.5796,-2.5786,-2.5775,-2.5766,-2.576,-2.575,-2.574,-2.5727,-2.5718,-2.5707,-2.5691,-2.5677,-2.5666,-2.5661,-2.5656,-2.5662,-2.5655,-2.564,-2.5637,-2.5634,-2.5634,-2.5662,-2.5662,-2.5672,-2.5672,-2.5672]}]]